Time,TemperatureF,DewpointF,PressureIn,WindDirection,WindDirectionDegrees,WindSpeedMPH,WindSpeedGustMPH,Humidity,HourlyPrecipIn,Conditions,Clouds,dailyrainin,SolarRadiationWatts/m^2,SoftwareType,DateUTC
2013-04-15 00:22:00,26.0,7.0,-100.00,SSE,149,6.0,10.0,44,0.00,,,0.13,0.000000,,2013-04-15 06:22:00,
2013-04-15 00:33:00,26.0,7.0,-100.00,SSE,149,6.0,10.0,44,0.00,,,0.13,0.000000,,2013-04-15 06:33:00,
2013-04-15 00:42:00,26.0,7.0,-100.00,SSE,149,6.0,10.0,44,0.00,,,0.13,0.000000,,2013-04-15 06:42:00,
2013-04-15 00:52:00,26.0,7.0,-100.00,SSE,149,6.0,10.0,44,0.00,,,0.13,0.000000,,2013-04-15 06:52:00,
2013-04-15 01:41:00,25.0,8.0,-100.00,West,278,6.0,15.0,47,0.00,,,0.13,0.000000,,2013-04-15 07:41:00,
2013-04-15 01:42:00,25.0,8.0,-100.00,West,278,6.0,15.0,47,0.00,,,0.13,0.000000,,2013-04-15 07:42:00,
2013-04-15 01:52:00,25.0,8.0,-100.00,West,278,6.0,15.0,47,0.00,,,0.13,0.000000,,2013-04-15 07:52:00,
2013-04-15 02:33:00,23.0,12.0,-100.00,NNE,18,4.0,16.0,62,0.00,,,0.13,0.000000,,2013-04-15 08:33:00,
2013-04-15 02:42:00,23.0,12.0,-100.00,NNE,18,4.0,16.0,62,0.00,,,0.13,0.000000,,2013-04-15 08:42:00,
2013-04-15 02:52:00,23.0,12.0,-100.00,NNE,18,4.0,16.0,62,0.00,,,0.13,0.000000,,2013-04-15 08:52:00,
2013-04-15 03:22:00,25.0,11.0,-100.00,SW,223,5.0,13.0,55,0.00,,,0.13,0.000000,,2013-04-15 09:22:00,
2013-04-15 03:32:00,25.0,11.0,-100.00,SW,223,5.0,13.0,55,0.00,,,0.13,0.000000,,2013-04-15 09:32:00,
2013-04-15 03:42:00,25.0,11.0,-100.00,SW,223,5.0,13.0,55,0.00,,,0.13,0.000000,,2013-04-15 09:42:00,
2013-04-15 03:52:00,25.0,11.0,-100.00,SW,223,5.0,13.0,55,0.00,,,0.13,0.000000,,2013-04-15 09:52:00,
2013-04-15 04:23:00,22.0,20.0,-100.00,SSE,166,4.0,17.0,90,0.00,,,0.13,1.000000,,2013-04-15 10:23:00,
2013-04-15 04:33:00,22.0,20.0,-100.00,SSE,166,4.0,17.0,90,0.00,,,0.13,1.000000,,2013-04-15 10:33:00,
2013-04-15 04:42:00,22.0,20.0,-100.00,SSE,166,4.0,17.0,90,0.00,,,0.13,1.000000,,2013-04-15 10:42:00,
2013-04-15 04:52:00,22.0,20.0,-100.00,SSE,166,4.0,17.0,90,0.00,,,0.13,1.000000,,2013-04-15 10:52:00,
2013-04-15 05:22:00,22.0,20.0,-100.00,SW,231,3.0,8.0,92,0.00,,,0.13,0.000000,,2013-04-15 11:22:00,
2013-04-15 05:32:00,22.0,20.0,-100.00,SW,231,3.0,8.0,92,0.00,,,0.13,0.000000,,2013-04-15 11:32:00,
2013-04-15 05:42:00,22.0,20.0,-100.00,SW,231,3.0,8.0,92,0.00,,,0.13,0.000000,,2013-04-15 11:42:00,
2013-04-15 05:52:00,22.0,20.0,-100.00,SW,231,3.0,8.0,92,0.00,,,0.13,0.000000,,2013-04-15 11:52:00,
2013-04-15 06:23:00,23.0,21.0,-100.00,NNW,339,5.0,11.0,92,0.00,,,0.13,0.000000,,2013-04-15 12:23:00,
2013-04-15 06:33:00,23.0,21.0,-100.00,NNW,339,5.0,11.0,92,0.00,,,0.13,0.000000,,2013-04-15 12:33:00,
2013-04-15 06:43:00,23.0,21.0,-100.00,NNW,339,5.0,11.0,92,0.00,,,0.13,0.000000,,2013-04-15 12:43:00,
2013-04-15 06:52:00,23.0,21.0,-100.00,NNW,339,5.0,11.0,92,0.00,,,0.13,0.000000,,2013-04-15 12:52:00,
2013-04-15 07:23:00,23.0,21.0,-100.00,WNW,291,4.0,11.0,92,0.00,,,0.13,1.000000,,2013-04-15 13:23:00,
2013-04-15 07:33:00,23.0,21.0,-100.00,WNW,291,4.0,11.0,92,0.00,,,0.13,1.000000,,2013-04-15 13:33:00,
2013-04-15 07:42:00,23.0,21.0,-100.00,WNW,291,4.0,11.0,92,0.00,,,0.13,1.000000,,2013-04-15 13:42:00,
2013-04-15 07:52:00,23.0,21.0,-100.00,WNW,291,4.0,11.0,92,0.00,,,0.13,1.000000,,2013-04-15 13:52:00,
2013-04-15 08:22:00,26.0,24.0,-100.00,West,264,11.0,20.0,93,0.00,,,0.13,20.000000,,2013-04-15 14:22:00,
2013-04-15 08:33:00,26.0,24.0,-100.00,West,264,11.0,20.0,93,0.00,,,0.13,20.000000,,2013-04-15 14:33:00,
2013-04-15 08:43:00,26.0,24.0,-100.00,West,264,11.0,20.0,93,0.00,,,0.13,20.000000,,2013-04-15 14:43:00,
2013-04-15 08:53:00,26.0,24.0,-100.00,West,264,11.0,20.0,93,0.00,,,0.13,20.000000,,2013-04-15 14:53:00,
2013-04-15 09:23:00,27.0,25.0,-100.00,WSW,248,13.0,24.0,92,0.00,,,-99.99,71.000000,,2013-04-15 15:23:00,
2013-04-15 09:34:00,27.0,25.0,-100.00,WSW,248,13.0,24.0,92,0.00,,,-99.99,71.000000,,2013-04-15 15:34:00,
2013-04-15 09:43:00,27.0,25.0,-100.00,WSW,248,13.0,24.0,92,0.00,,,-99.99,71.000000,,2013-04-15 15:43:00,
2013-04-15 09:53:00,27.0,25.0,-100.00,WSW,248,13.0,24.0,92,0.00,,,-99.99,71.000000,,2013-04-15 15:53:00,
2013-04-15 10:24:00,26.0,23.0,-100.00,WSW,243,8.0,16.0,90,0.00,,,0.13,140.000000,,2013-04-15 16:24:00,
2013-04-15 10:33:00,26.0,23.0,-100.00,WSW,243,8.0,16.0,90,0.00,,,0.13,140.000000,,2013-04-15 16:33:00,
2013-04-15 10:43:00,26.0,23.0,-100.00,WSW,243,8.0,16.0,90,0.00,,,0.13,140.000000,,2013-04-15 16:43:00,
2013-04-15 10:52:00,26.0,23.0,-100.00,WSW,243,8.0,16.0,90,0.00,,,0.13,140.000000,,2013-04-15 16:52:00,
2013-04-15 11:21:00,27.0,24.0,-100.00,WSW,251,10.0,19.0,87,0.00,,,0.10,201.000000,,2013-04-15 17:21:00,
2013-04-15 11:33:00,27.0,24.0,-100.00,WSW,251,10.0,19.0,87,0.00,,,0.10,201.000000,,2013-04-15 17:33:00,
2013-04-15 11:43:00,27.0,24.0,-100.00,WSW,251,10.0,19.0,87,0.00,,,0.10,201.000000,,2013-04-15 17:43:00,
2013-04-15 11:52:00,27.0,24.0,-100.00,WSW,251,10.0,19.0,87,0.00,,,0.10,201.000000,,2013-04-15 17:52:00,
2013-04-15 12:23:00,27.0,24.0,-100.00,SSW,207,7.0,16.0,88,0.00,,,0.03,207.000000,,2013-04-15 18:23:00,
2013-04-15 12:32:00,27.0,24.0,-100.00,SSW,207,7.0,16.0,88,0.00,,,0.03,207.000000,,2013-04-15 18:32:00,
2013-04-15 12:42:00,27.0,24.0,-100.00,SSW,207,7.0,16.0,88,0.00,,,0.03,207.000000,,2013-04-15 18:42:00,
2013-04-15 12:52:00,27.0,24.0,-100.00,SSW,207,7.0,16.0,88,0.00,,,0.03,207.000000,,2013-04-15 18:52:00,
2013-04-15 12:55:00,26.0,23.0,-100.00,SSW,210,6.0,16.0,87,0.00,,,0.00,169.000000,,2013-04-15 18:55:00,
2013-04-15 13:22:00,26.0,23.0,-100.00,SSW,210,6.0,16.0,87,0.00,,,0.00,169.000000,,2013-04-15 19:22:00,
2013-04-15 13:34:00,26.0,23.0,-100.00,SSW,210,6.0,16.0,87,0.00,,,0.00,169.000000,,2013-04-15 19:34:00,
2013-04-15 13:47:00,26.0,23.0,-100.00,SSW,210,6.0,16.0,87,0.00,,,0.00,169.000000,,2013-04-15 19:47:00,
2013-04-15 14:22:00,25.0,22.0,-100.00,South,178,7.0,15.0,90,0.00,,,0.00,198.000000,,2013-04-15 20:22:00,
2013-04-15 14:32:00,25.0,22.0,-100.00,South,178,7.0,15.0,90,0.00,,,0.00,198.000000,,2013-04-15 20:32:00,
2013-04-15 14:42:00,25.0,22.0,-100.00,South,178,7.0,15.0,90,0.00,,,0.00,198.000000,,2013-04-15 20:42:00,
2013-04-15 14:52:00,25.0,22.0,-100.00,South,178,7.0,15.0,90,0.00,,,0.00,198.000000,,2013-04-15 20:52:00,
2013-04-15 15:22:00,26.0,22.0,-100.00,West,280,5.0,11.0,85,0.00,,,0.00,168.000000,,2013-04-15 21:22:00,
2013-04-15 15:32:00,26.0,22.0,-100.00,West,280,5.0,11.0,85,0.00,,,0.00,168.000000,,2013-04-15 21:32:00,
2013-04-15 15:42:00,26.0,22.0,-100.00,West,280,5.0,11.0,85,0.00,,,0.00,168.000000,,2013-04-15 21:42:00,
2013-04-15 15:53:00,26.0,22.0,-100.00,West,280,5.0,11.0,85,0.00,,,0.00,168.000000,,2013-04-15 21:53:00,
2013-04-15 16:23:00,26.0,23.0,-100.00,South,169,4.0,10.0,88,0.00,,,0.00,159.000000,,2013-04-15 22:23:00,
2013-04-15 16:32:00,26.0,23.0,-100.00,South,169,4.0,10.0,88,0.00,,,0.00,159.000000,,2013-04-15 22:32:00,
2013-04-15 16:42:00,26.0,23.0,-100.00,South,169,4.0,10.0,88,0.00,,,0.00,159.000000,,2013-04-15 22:42:00,
2013-04-15 16:52:00,26.0,23.0,-100.00,South,169,4.0,10.0,88,0.00,,,0.00,159.000000,,2013-04-15 22:52:00,
2013-04-15 17:22:00,24.0,22.0,-100.00,SSE,159,7.0,9.0,91,0.00,,,0.00,90.000000,,2013-04-15 23:22:00,
2013-04-15 17:32:00,24.0,22.0,-100.00,SSE,159,7.0,9.0,91,0.00,,,0.00,90.000000,,2013-04-15 23:32:00,
2013-04-15 17:42:00,24.0,22.0,-100.00,SSE,159,7.0,9.0,91,0.00,,,0.00,90.000000,,2013-04-15 23:42:00,
2013-04-15 17:52:00,24.0,22.0,-100.00,SSE,159,7.0,9.0,91,0.00,,,0.00,90.000000,,2013-04-15 23:52:00,
2013-04-15 18:22:00,24.0,22.0,-100.00,SE,144,6.0,12.0,92,0.00,,,0.00,74.000000,,2013-04-16 00:22:00,
2013-04-15 18:32:00,24.0,22.0,-100.00,SE,144,6.0,12.0,92,0.00,,,0.00,74.000000,,2013-04-16 00:32:00,
2013-04-15 18:42:00,24.0,22.0,-100.00,SE,144,6.0,12.0,92,0.00,,,0.00,74.000000,,2013-04-16 00:42:00,
2013-04-15 18:51:00,24.0,22.0,-100.00,SE,144,6.0,12.0,92,0.00,,,0.00,74.000000,,2013-04-16 00:51:00,
2013-04-15 19:22:00,23.0,21.0,-100.00,SE,141,7.0,13.0,92,0.00,,,0.00,40.000000,,2013-04-16 01:22:00,
2013-04-15 19:32:00,23.0,21.0,-100.00,SE,141,7.0,13.0,92,0.00,,,0.00,40.000000,,2013-04-16 01:32:00,
2013-04-15 19:42:00,23.0,21.0,-100.00,SE,141,7.0,13.0,92,0.00,,,0.00,40.000000,,2013-04-16 01:42:00,
2013-04-15 19:52:00,23.0,21.0,-100.00,SE,141,7.0,13.0,92,0.00,,,0.00,40.000000,,2013-04-16 01:52:00,
2013-04-15 20:22:00,24.0,22.0,-100.00,ENE,61,4.0,7.0,93,0.00,,,0.00,7.000000,,2013-04-16 02:22:00,
2013-04-15 20:32:00,24.0,22.0,-100.00,ENE,61,4.0,7.0,93,0.00,,,0.00,7.000000,,2013-04-16 02:32:00,
2013-04-15 20:42:00,24.0,22.0,-100.00,ENE,61,4.0,7.0,93,0.00,,,0.00,7.000000,,2013-04-16 02:42:00,
2013-04-15 20:51:00,24.0,22.0,-100.00,ENE,61,4.0,7.0,93,0.00,,,0.00,7.000000,,2013-04-16 02:51:00,
2013-04-15 21:22:00,24.0,22.0,-100.00,NE,49,7.0,11.0,93,0.00,,,0.00,0.000000,,2013-04-16 03:22:00,
2013-04-15 21:33:00,24.0,22.0,-100.00,NE,49,7.0,11.0,93,0.00,,,0.00,0.000000,,2013-04-16 03:33:00,
2013-04-15 21:43:00,24.0,22.0,-100.00,NE,49,7.0,11.0,93,0.00,,,0.00,0.000000,,2013-04-16 03:43:00,
2013-04-15 21:52:00,24.0,22.0,-100.00,NE,49,7.0,11.0,93,0.00,,,0.00,0.000000,,2013-04-16 03:52:00,
2013-04-15 22:23:00,24.0,22.0,-100.00,NNE,29,9.0,14.0,93,0.00,,,0.00,1.000000,,2013-04-16 04:23:00,
2013-04-15 22:32:00,24.0,22.0,-100.00,NNE,29,9.0,14.0,93,0.00,,,0.00,1.000000,,2013-04-16 04:32:00,
2013-04-15 22:42:00,24.0,22.0,-100.00,NNE,29,9.0,14.0,93,0.00,,,0.00,1.000000,,2013-04-16 04:42:00,
2013-04-15 22:52:00,24.0,22.0,-100.00,NNE,29,9.0,14.0,93,0.00,,,0.00,1.000000,,2013-04-16 04:52:00,
2013-04-15 23:22:00,24.0,22.0,-100.00,NNE,33,8.0,12.0,91,0.00,,,0.00,0.000000,,2013-04-16 05:22:00,
2013-04-15 23:32:00,24.0,22.0,-100.00,NNE,33,8.0,12.0,91,0.00,,,0.00,0.000000,,2013-04-16 05:32:00,
2013-04-15 23:42:00,24.0,22.0,-100.00,NNE,33,8.0,12.0,91,0.00,,,0.00,0.000000,,2013-04-16 05:42:00,
2013-04-15 23:51:00,24.0,22.0,-100.00,NNE,33,8.0,12.0,91,0.00,,,0.00,0.000000,,2013-04-16 05:51:00,